Weather History for Rayong, Thailand

Change the Weather History Date:

Thursday, October 2, 2014

  Actual Average Record
Temperature  
Mean Temperature 82 °F -  
Max Temperature 88 °F 87 °F 95 °F (2001)
Min Temperature 75 °F 76 °F 75 °F (2000)
Cooling Degree Days 16    
Growing Degree Days 32 (Base 50)    
Moisture  
Dew Point 75 °F    
Average Humidity 85    
Maximum Humidity 94    
Minimum Humidity 62    
Precipitation  
Precipitation 0.79 in - - ()
Sea Level Pressure  
Sea Level Pressure 29.82 in    
Wind  
Wind Speed 3 mph ()    
Max Wind Speed 12 mph    
Max Gust Speed -    
Visibility 3.6 miles    
Events Rain , Thunderstorm    
Averages and records for this station are not official NWS values.
T = Trace of Precipitation, MM = Missing Value Source: Averaged Metar Reports

Daily Weather History Graph

Daily Weather History Graph

Search for Another Location

Airport:

Trip Planner

Search our weather history database for the weather conditions in past years. The results will help you decide how hot, cold, wet, or windy it might be!

Date:

Astronomy

Oct. 02, 2014 Rise Set
Actual Time 6:05 AM ICT 6:05 PM ICT
Civil Twilight 5:44 AM ICT 6:26 PM ICT
Nautical Twilight 5:19 AM ICT 6:51 PM ICT
Astronomical Twilight 4:54 AM ICT 7:15 PM ICT
Moon 12:50 PM ICT (10/2) No Moon Set
Length of Visible Light 12h 42m
Length of Day
12h 00m
First Quarter, 55% of the Moon is Illuminated
Oct 2
First Quarter
Oct 8
Full
Oct 16
Last Quarter
Oct 24
New
Oct 31
First Quarter

Hourly Weather History & Observations

Time (ICT) Temp. Heat Index Dew Point Humidity Pressure Visibility Wind Dir Wind Speed Gust Speed Precip Events Conditions
12:00 AM 78.8 °F - 77.0 °F 94% 29.83 in 3.7 mi ENE 3.5 mph - N/A   Mostly Cloudy
12:30 AM 78.8 °F - 77.0 °F 94% 29.83 in 3.7 mi West 3.5 mph - N/A   Mostly Cloudy
1:00 AM 79 °F - 75 °F 83% 29.83 in 6 mi Calm Calm - -   Scattered Clouds
1:00 AM 78.8 °F - 75.2 °F 89% 29.83 in 4.3 mi NNW 3.5 mph - N/A   Mostly Cloudy
1:30 AM 77.0 °F - 75.2 °F 94% 29.83 in 3.7 mi NE 3.5 mph - N/A   Mostly Cloudy
2:00 AM 77.0 °F - 75.2 °F 94% 29.80 in 3.7 mi NE 3.5 mph - N/A   Mostly Cloudy
2:30 AM 77.0 °F - 75.2 °F 94% 29.80 in 3.7 mi NE 3.5 mph - N/A   Mostly Cloudy
3:00 AM 77.0 °F - 75.2 °F 94% 29.80 in 3.7 mi Calm Calm - N/A   Mostly Cloudy
3:30 AM 77.0 °F - 75.2 °F 94% 29.80 in 3.7 mi ENE 3.5 mph - N/A   Mostly Cloudy
4:00 AM 78 °F - 76 °F 91% 29.83 in 4 mi Calm Calm - -   Scattered Clouds
4:00 AM 78.8 °F - 75.2 °F 89% 29.80 in 3.1 mi ENE 3.5 mph - N/A   Mostly Cloudy
4:30 AM 78.8 °F - 75.2 °F 89% 29.80 in 3.1 mi NNE 3.5 mph - N/A   Mostly Cloudy
5:00 AM 77.0 °F - 75.2 °F 94% 29.80 in 2.5 mi NE 3.5 mph - N/A   Mostly Cloudy
5:30 AM 77.0 °F - 75.2 °F 94% 29.80 in 2.5 mi ENE 3.5 mph - N/A   Mostly Cloudy
6:00 AM 77.0 °F - 75.2 °F 94% 29.83 in 2.5 mi ENE 3.5 mph - N/A   Mostly Cloudy
6:30 AM 77.0 °F - 75.2 °F 94% 29.83 in 1.9 mi NE 4.6 mph - N/A   Mostly Cloudy
7:00 AM 79 °F - 76 °F 89% 29.86 in 5 mi Calm Calm - - Thunderstorm Thunderstorm
7:00 AM 77.0 °F - 75.2 °F 94% 29.83 in 1.9 mi NE 3.5 mph - N/A   Mostly Cloudy
7:30 AM 78.8 °F - 77.0 °F 94% 29.86 in 1.9 mi Calm Calm - N/A   Mostly Cloudy
8:00 AM 82.4 °F 90.9 °F 77.0 °F 84% 29.86 in 1.9 mi Calm Calm - N/A   Mostly Cloudy
8:30 AM 84.2 °F 94.1 °F 77.0 °F 79% 29.86 in 2.5 mi Calm Calm - N/A   Mostly Cloudy
9:00 AM 84.2 °F 94.1 °F 77.0 °F 79% 29.86 in 3.1 mi Calm Calm - N/A   Mostly Cloudy
9:30 AM 80.6 °F 85.4 °F 73.4 °F 79% 29.89 in 3.1 mi West 6.9 mph - N/A   Mostly Cloudy
10:00 AM 85 °F - 77 °F 71% 29.90 in 4 mi Calm Calm - -   Mist
10:00 AM 86.0 °F 96.9 °F 77.0 °F 74% 29.89 in 3.7 mi WSW 9.2 mph - N/A   Mostly Cloudy
10:30 AM 84.2 °F 94.1 °F 77.0 °F 79% 29.86 in 3.7 mi SW 9.2 mph - N/A   Mostly Cloudy
11:00 AM 86.0 °F 96.9 °F 77.0 °F 74% 29.86 in 3.7 mi WSW 6.9 mph - N/A   Mostly Cloudy
11:30 AM 84.2 °F 94.1 °F 77.0 °F 79% 29.86 in 3.7 mi WNW 6.9 mph - N/A Thunderstorm Thunderstorm
12:00 PM 84.2 °F 94.1 °F 77.0 °F 79% 29.83 in 3.7 mi WNW 6.9 mph - N/A Thunderstorm Thunderstorm
12:30 PM 86.0 °F 96.9 °F 77.0 °F 74% 29.83 in 3.7 mi West 4.6 mph - N/A Thunderstorm Thunderstorm
1:00 PM 86 °F - 78 °F 72% 29.86 in 5 mi Calm Calm - - Thunderstorm Thunderstorm
1:00 PM 87.8 °F 95.6 °F 73.4 °F 62% 29.80 in 3.7 mi WNW 4.6 mph - N/A Thunderstorm Thunderstorm
1:30 PM 87.8 °F 99.7 °F 77.0 °F 70% 29.77 in 4.3 mi SW 4.6 mph - N/A Thunderstorm Thunderstorm
2:00 PM 89.6 °F 99.8 °F 75.2 °F 62% 29.74 in 4.3 mi West 6.9 mph - N/A Thunderstorm Thunderstorm
2:30 PM 87.8 °F 99.7 °F 77.0 °F 70% 29.74 in 4.3 mi WNW 9.2 mph - N/A Thunderstorm Thunderstorm
3:00 PM 84.2 °F 90.9 °F 73.4 °F 70% 29.71 in 4.3 mi ENE 11.5 mph - N/A Thunderstorm Thunderstorm
3:30 PM 82.4 °F 89.5 °F 75.2 °F 79% 29.74 in 4.3 mi NE 6.9 mph - N/A Thunderstorm Thunderstorm
4:00 PM 86 °F - 77 °F 68% 29.76 in 5 mi Calm Calm - - Thunderstorm Thunderstorm
4:00 PM 80.6 °F 87.1 °F 77.0 °F 89% 29.74 in 3.7 mi NW 3.5 mph - N/A Rain , Thunderstorm Light Thunderstorms and Rain
4:30 PM 80.6 °F 87.1 °F 77.0 °F 89% 29.74 in 3.7 mi WNW 3.5 mph - N/A Rain , Thunderstorm Light Thunderstorms and Rain
5:00 PM 80.6 °F 86.2 °F 75.2 °F 84% 29.77 in 3.7 mi West 3.5 mph - N/A Rain , Thunderstorm Light Thunderstorms and Rain
5:30 PM 80.6 °F 87.1 °F 77.0 °F 89% 29.77 in 3.7 mi Calm Calm - N/A Rain , Thunderstorm Light Thunderstorms and Rain
6:00 PM 77.0 °F - 73.4 °F 89% 29.77 in 3.1 mi South 9.2 mph - N/A Rain , Thunderstorm Light Thunderstorms and Rain
7:00 PM 76 °F - 74 °F 91% 29.80 in 4 mi Calm Calm - - Rain , Thunderstorm Thunderstorms and Rain
7:00 PM 75.2 °F - 73.4 °F 94% 29.77 in 3.1 mi NNE 4.6 mph - N/A Rain , Thunderstorm Light Thunderstorms and Rain
7:30 PM 77.0 °F - 73.4 °F 89% 29.80 in 3.1 mi East 3.5 mph - N/A Rain , Thunderstorm Light Thunderstorms and Rain
8:00 PM 77.0 °F - 73.4 °F 89% 29.80 in 3.1 mi NNE 3.5 mph - N/A Rain Light Rain
8:30 PM 77.0 °F - 73.4 °F 89% 29.83 in 3.7 mi NE 4.6 mph - N/A   Mostly Cloudy
9:00 PM 77.0 °F - 73.4 °F 89% 29.83 in 4.3 mi ENE 4.6 mph - N/A   Mostly Cloudy
9:30 PM 75.2 °F - 73.4 °F 94% 29.83 in 4.3 mi NE 3.5 mph - N/A   Mostly Cloudy
10:00 PM 77 °F - 74 °F 90% 29.86 in 4 mi Calm Calm - -   Overcast
10:00 PM 77.0 °F - 73.4 °F 89% 29.83 in 4.3 mi NNE 3.5 mph - N/A   Mostly Cloudy
10:30 PM 77.0 °F - 73.4 °F 89% 29.83 in 4.3 mi NE 4.6 mph - N/A   Mostly Cloudy
11:00 PM 77.0 °F - 73.4 °F 89% 29.83 in 4.3 mi NE 4.6 mph - N/A Thunderstorm Thunderstorm
11:30 PM 77.0 °F - 73.4 °F 89% 29.83 in 3.7 mi NE 3.5 mph - N/A Thunderstorm Thunderstorm